Date String (YYYY-MM-DD hh:mm:ss) UTC,Instrument flags,Ambient pressure (hPa),Sample flow (lpm),Bypass flow (lpm),Sample temperature (°C),Ambient temperature (°C),ASC tube jacket temperature (°C),LED temperature (°C),Box temperature (°C),Sample RH (%),Span deviation,Mass concentration (μg/m³),Mass concentration (μg/m³),Mass concentration (μg/m³)
DateTimeUTC,F1_M11,P_M11,Q1_M11,Q2_M11,T1_M11,T2_M11,T3_M11,T4_M11,T5_M11,U1_M11,ZSPAN_M11,X0_M11,X2_M11,X1_M11
2021-10-17 21:00:00,,0826.2,5.00,0.00,29.7,27.2,00.0,38.8,31.3,10.2,0000.0,0009.53,0003.36,0002.41
2021-10-17 21:01:00,,0826.2,5.00,0.00,29.7,27.6,00.0,38.8,31.4,10.1,0000.0,0009.53,0003.38,0002.43
2021-10-17 21:02:00,,0826.4,4.99,0.00,29.7,28.0,00.0,38.8,31.5,10.0,0000.0,0008.93,0003.36,0002.44
2021-10-17 21:03:00,,0826.2,5.02,0.00,29.8,28.3,00.0,38.8,31.6,10.0,0000.0,0008.91,0003.38,0002.46
2021-10-17 21:04:00,,0826.2,4.98,0.00,29.8,28.6,00.0,38.8,31.7,10.0,0000.0,0008.78,0003.40,0002.47
2021-10-17 21:05:00,,0826.2,4.99,0.00,29.9,28.8,00.0,38.8,31.7,10.0,0000.0,0008.31,0003.42,0002.49
2021-10-17 21:06:00,,0826.2,5.01,0.00,29.9,29.0,00.0,38.9,31.8,09.9,0000.0,0008.20,0003.45,0002.52
2021-10-17 21:07:00,,0826.2,4.99,0.00,30.0,29.1,00.0,38.9,31.9,09.9,0000.0,0008.51,0003.53,0002.56
2021-10-17 21:08:00,,0826.2,5.01,0.00,30.0,29.2,00.0,38.9,31.9,09.6,0000.0,0008.88,0003.58,0002.58
2021-10-17 21:09:00,,0826.2,5.01,0.00,30.1,29.4,00.0,38.9,32.0,09.6,0000.0,0008.97,0003.54,0002.58
2021-10-17 21:10:00,,0826.2,4.98,0.00,30.1,29.4,00.0,39.0,32.0,09.6,0000.0,0009.36,0003.55,0002.57
2021-10-17 21:11:00,,0826.2,5.01,0.00,30.1,28.1,00.0,39.0,31.7,09.5,0000.0,0009.74,0003.56,0002.57
2021-10-17 21:12:00,,0826.2,5.00,0.00,29.9,26.1,00.0,39.0,31.0,09.7,0000.0,0009.72,0003.51,0002.56
2021-10-17 21:13:00,,0826.2,4.99,0.00,29.7,25.9,00.0,38.9,30.9,09.8,0000.0,0009.80,0003.50,0002.56
2021-10-17 21:14:00,,0826.2,5.01,0.00,29.7,26.3,00.0,38.9,31.0,09.8,0000.0,0009.85,0003.50,0002.57
2021-10-17 21:15:00,,0826.2,4.99,0.00,29.6,26.8,00.0,38.8,31.2,09.9,0000.0,0010.40,0003.48,0002.57
2021-10-17 21:16:00,,0826.2,4.99,0.00,29.6,27.3,00.0,38.8,31.3,10.0,0000.0,0010.37,0003.47,0002.59
2021-10-17 21:17:00,,0826.2,5.02,0.00,29.7,27.8,00.0,38.8,31.4,10.0,0000.0,0010.40,0003.47,0002.63
2021-10-17 21:18:00,,0826.1,4.99,0.00,29.7,28.1,00.0,38.8,31.5,10.0,0000.0,0010.06,0003.45,0002.66
2021-10-17 21:19:00,,0826.2,5.00,0.00,29.7,28.4,00.0,38.8,31.6,10.0,0000.0,0009.46,0003.40,0002.70
2021-10-17 21:20:00,,0826.2,4.99,0.00,29.8,28.7,00.0,38.8,31.7,10.0,0000.0,0009.28,0003.43,0002.74
2021-10-17 21:21:00,,0826.2,5.00,0.00,29.8,28.9,00.0,38.8,31.7,09.9,0000.0,0009.04,0003.47,0002.77
2021-10-17 21:22:00,,0826.2,4.99,0.00,29.9,29.0,00.0,38.8,31.8,10.0,0000.0,0009.92,0003.53,0002.80
2021-10-17 21:23:00,,0826.2,5.01,0.00,30.0,29.2,00.0,38.8,31.9,10.2,0000.0,0009.62,0003.56,0002.83
2021-10-17 21:24:00,,0826.1,5.01,0.00,30.0,29.3,00.0,38.9,31.9,10.3,0000.0,0009.83,0003.64,0002.86
2021-10-17 21:25:00,,0826.0,4.99,0.00,30.0,28.8,00.0,38.9,31.8,10.2,0000.0,0009.88,0003.72,0002.89
2021-10-17 21:26:00,,0826.0,5.01,0.00,29.9,26.7,00.0,38.9,31.2,10.2,0000.0,0009.41,0003.78,0002.93
2021-10-17 21:27:00,,0826.0,4.99,0.00,29.7,25.8,00.0,38.9,31.0,10.1,0000.0,0009.34,0003.81,0002.96
2021-10-17 21:28:00,,0826.0,5.01,0.00,29.6,26.1,00.0,38.8,31.0,10.0,0000.0,0009.04,0003.80,0002.96
2021-10-17 21:29:00,,0826.0,4.99,0.00,29.6,26.6,00.0,38.8,31.1,10.2,0000.0,0009.16,0003.83,0002.96
2021-10-17 21:30:00,,0826.0,5.01,0.00,29.6,27.1,00.0,38.7,31.2,10.2,0000.0,0009.34,0003.88,0002.98
2021-10-17 21:31:00,,0826.0,4.99,0.00,29.6,27.5,00.0,38.7,31.3,10.0,0000.0,0009.24,0003.90,0002.98
2021-10-17 21:32:00,,0826.0,4.99,0.00,29.6,27.9,00.0,38.7,31.4,10.0,0000.0,0009.06,0003.88,0002.99
2021-10-17 21:33:00,,0826.0,5.01,0.00,29.7,28.2,00.0,38.7,31.5,10.0,0000.0,0007.94,0003.85,0003.00
2021-10-17 21:34:00,,0826.0,5.00,0.00,29.7,28.5,00.0,38.7,31.6,10.0,0000.0,0007.83,0003.81,0002.99
2021-10-17 21:35:00,,0826.0,5.00,0.00,29.8,28.7,00.0,38.7,31.7,10.4,0000.0,0007.66,0003.76,0002.98
2021-10-17 21:36:00,,0826.0,5.00,0.00,29.8,28.9,00.0,38.7,31.7,10.5,0000.0,0007.67,0003.74,0003.01
2021-10-17 21:37:00,,0825.9,5.00,0.00,29.9,29.1,00.0,38.8,31.8,10.6,0000.0,0008.28,0003.75,0003.02
2021-10-17 21:38:00,,0825.9,5.01,0.00,29.9,29.2,00.0,38.8,31.8,10.5,0000.0,0009.03,0003.79,0003.04
2021-10-17 21:39:00,,0825.9,5.00,0.00,30.0,29.3,00.0,38.8,31.9,10.5,0000.0,0009.33,0003.84,0003.07
2021-10-17 21:40:00,,0825.9,5.00,0.00,30.0,28.7,00.0,38.9,31.8,10.5,0000.0,0009.35,0003.87,0003.11
2021-10-17 21:41:00,,0825.8,4.99,0.00,29.9,26.5,00.0,38.8,31.1,10.5,0000.0,0009.69,0003.87,0003.13
2021-10-17 21:42:00,,0825.8,5.00,0.00,29.7,25.7,00.0,38.8,30.9,10.6,0000.0,0010.00,0003.90,0003.15
2021-10-17 21:43:00,,0825.8,5.01,0.00,29.6,26.1,00.0,38.8,31.0,10.7,0000.0,0010.12,0003.95,0003.17
2021-10-17 21:44:00,,0826.0,5.00,0.00,29.5,26.6,00.0,38.7,31.0,10.7,0000.0,0010.45,0004.01,0003.19
2021-10-17 21:45:00,,0825.9,4.99,0.00,29.5,27.1,00.0,38.7,31.2,10.7,0000.0,0011.08,0004.11,0003.22
2021-10-17 21:46:00,,0826.0,5.01,0.00,29.6,27.6,00.0,38.7,31.3,10.7,0000.0,0011.14,0004.18,0003.25
2021-10-17 21:47:00,,0826.2,5.01,0.00,29.6,28.0,00.0,38.7,31.4,10.7,0000.0,0011.54,0004.19,0003.25
2021-10-17 21:48:00,,0826.3,4.99,0.00,29.6,28.3,00.0,38.7,31.5,10.6,0000.0,0011.30,0004.18,0003.25
2021-10-17 21:49:00,,0826.0,5.01,0.00,29.7,28.5,00.0,38.7,31.5,10.6,0000.0,0011.01,0004.16,0003.25
2021-10-17 21:50:00,,0826.1,5.00,0.00,29.7,28.7,00.0,38.7,31.6,10.5,0000.0,0011.24,0004.15,0003.26
2021-10-17 21:51:00,,0826.1,4.99,0.00,29.8,28.9,00.0,38.7,31.7,10.6,0000.0,0011.65,0004.18,0003.25
2021-10-17 21:52:00,,0826.1,5.01,0.00,29.9,29.0,00.0,38.7,31.8,10.4,0000.0,0012.57,0004.19,0003.25
2021-10-17 21:53:00,,0825.9,4.99,0.00,29.9,29.2,00.0,38.8,31.9,10.2,0000.0,0012.53,0004.18,0003.24
2021-10-17 21:54:00,,0825.8,5.00,0.00,29.9,28.3,00.0,38.8,31.6,10.2,0000.0,0012.40,0004.13,0003.24
2021-10-17 21:55:00,,0825.9,5.01,0.00,29.7,26.2,00.0,38.8,31.0,10.4,0000.0,0012.23,0004.11,0003.24
2021-10-17 21:56:00,,0825.7,4.99,0.00,29.6,25.7,00.0,38.7,30.8,10.5,0000.0,0012.43,0004.09,0003.25
2021-10-17 21:57:00,,0825.7,5.00,0.00,29.5,26.1,00.0,38.7,30.9,10.6,0000.0,0013.27,0004.12,0003.27
2021-10-17 21:58:00,,0826.0,5.01,0.00,29.4,26.6,00.0,38.7,31.0,10.7,0000.0,0014.53,0004.14,0003.31
2021-10-17 21:59:00,,0826.0,5.00,0.00,29.4,27.1,00.0,38.6,31.1,10.6,0000.0,0014.30,0004.15,0003.35
